Metz-Nancy-Lorraine, France

5:29 AM CEST on August 21, 2017 (GMT +0200)
Metz-Nancy / Lorraine

Weather History for LFJL - March, 2013

Change the Weather History Date:

Saturday, March 2, 2013

  Actual Average Record
Temperature  
Mean Temperature 32 °F -  
Max Temperature 39 °F - - ()
Min Temperature 24 °F - - ()
Degree Days  
Heating Degree Days 34    
Moisture  
Dew Point 26 °F    
Average Humidity 74    
Maximum Humidity 93    
Minimum Humidity 60    
Precipitation  
Precipitation 0.00 in - - ()
Sea Level Pressure  
Sea Level Pressure 30.20 in    
Wind  
Wind Speed 7 mph ()    
Max Wind Speed 13 mph    
Max Gust Speed -    
Visibility 5.9 miles    
Events      
T = Trace of Precipitation, MM = Missing Value Source: Averaged Metar Reports

Daily Weather History Graph

Daily Weather History Graph

Search for Another Location

Airport or City:

Trip Planner

Search our weather history database for the weather conditions in past years. The results will help you decide how hot, cold, wet, or windy it might be!

Date:

Astronomy

Mar. 02, 2013 Rise Set
Actual Time 7:15 AM CET 6:19 PM CET
Civil Twilight 6:43 AM CET 6:51 PM CET
Nautical Twilight 6:06 AM CET 7:28 PM CET
Astronomical Twilight 5:30 AM CET 8:05 PM CET
Moon No Moon Rise 9:02 AM CET (3/2)
Length of Visible Light 12h 08m
Length of Day
11h 04m
Waning Gibbous, 76% of the Moon is Illuminated
Mar 2
Waning Gibbous
Mar 4
Last Quarter
Mar 11
New
Mar 19
First Quarter
Mar 27
Full

Hourly Weather History & Observations

Time (CET) Temp. Windchill Dew Point Humidity Pressure Visibility Wind Dir Wind Speed Gust Speed Precip Events Conditions
12:00 AM 35.6 °F 28.6 °F 30.2 °F 81% 30.21 in 5.6 mi NE 9.2 mph - N/A   Overcast
12:30 AM 33.8 °F 27.0 °F 30.2 °F 87% 30.21 in 6.2 mi NE 8.1 mph - N/A   Overcast
1:00 AM 33.8 °F 26.4 °F 28.4 °F 81% 30.21 in 6.2 mi NE 9.2 mph - N/A   Overcast
1:30 AM 33.8 °F 25.3 °F 28.4 °F 81% 30.21 in 6.2 mi NE 11.5 mph - N/A   Overcast
2:00 AM 33.8 °F 25.8 °F 28.4 °F 81% 30.21 in 6.2 mi NNE 10.4 mph - N/A   Overcast
2:30 AM 33.8 °F 26.4 °F 28.4 °F 81% 30.21 in 6.2 mi NNE 9.2 mph - N/A   Overcast
3:00 AM 33.8 °F 27.7 °F 28.4 °F 81% 30.21 in 6.2 mi NE 6.9 mph - N/A   Overcast
3:30 AM 33.8 °F 26.4 °F 28.4 °F 81% 30.21 in 6.2 mi NE 9.2 mph - N/A   Overcast
4:00 AM 33.8 °F 25.3 °F 26.6 °F 75% 30.21 in 6.2 mi ENE 11.5 mph - N/A   Overcast
4:30 AM 33.8 °F 26.4 °F 26.6 °F 75% 30.21 in 6.2 mi ENE 9.2 mph - N/A   Overcast
5:00 AM 33.8 °F 25.8 °F 26.6 °F 75% 30.21 in 6.2 mi East 10.4 mph - N/A   Overcast
5:30 AM 33.8 °F 24.8 °F 26.6 °F 75% 30.21 in 6.2 mi East 12.7 mph - N/A   Overcast
6:00 AM 32.0 °F 24.8 °F 26.6 °F 80% 30.21 in 6.2 mi ENE 8.1 mph - N/A   Overcast
6:30 AM 32.0 °F 24.8 °F 26.6 °F 80% 30.21 in 6.2 mi East 8.1 mph - N/A   Overcast
7:00 AM 32.0 °F 23.6 °F 24.8 °F 75% 30.21 in 6.2 mi ENE 10.4 mph - N/A   Overcast
7:30 AM 32.0 °F 24.2 °F 24.8 °F 75% 30.21 in 6.2 mi ENE 9.2 mph - N/A   Overcast
8:00 AM 32.0 °F 24.8 °F 24.8 °F 75% 30.21 in 6.2 mi ENE 8.1 mph - N/A   Overcast
8:30 AM 33.8 °F 27.0 °F 24.8 °F 70% 30.21 in 6.2 mi ENE 8.1 mph - N/A   Overcast
9:00 AM 33.8 °F 26.4 °F 24.8 °F 70% 30.21 in 6.2 mi ENE 9.2 mph - N/A   Overcast
9:30 AM 33.8 °F 25.8 °F 24.8 °F 70% 30.21 in 6.2 mi ENE 10.4 mph - N/A   Overcast
10:00 AM 33.8 °F 25.8 °F 24.8 °F 70% 30.21 in 6.2 mi ENE 10.4 mph - N/A   Overcast
10:30 AM 33.8 °F 26.4 °F 24.8 °F 70% 30.21 in 6.2 mi East 9.2 mph - N/A   Overcast
11:00 AM 33.8 °F 27.0 °F 24.8 °F 70% 30.21 in 6.2 mi NE 8.1 mph - N/A   Overcast
11:30 AM 33.8 °F 26.4 °F 24.8 °F 70% 30.24 in 6.2 mi NE 9.2 mph - N/A   Overcast
12:00 PM 33.8 °F 27.0 °F 24.8 °F 70% 30.21 in 6.2 mi NE 8.1 mph - N/A   Overcast
12:30 PM 35.6 °F 28.6 °F 24.8 °F 65% 30.21 in 6.2 mi ENE 9.2 mph - N/A   Overcast
1:00 PM 35.6 °F 29.9 °F 24.8 °F 65% 30.21 in 6.2 mi NNE 6.9 mph - N/A   Overcast
1:30 PM 35.6 °F 31.7 °F 26.6 °F 70% 30.21 in 6.2 mi NE 4.6 mph - N/A   Overcast
2:00 PM 37.4 °F 31.4 °F 26.6 °F 65% 30.21 in 6.2 mi NE 8.1 mph - N/A   Mostly Cloudy
2:30 PM 37.4 °F 33.8 °F 24.8 °F 60% 30.18 in 6.2 mi North 4.6 mph - N/A   Overcast
3:00 PM 37.4 °F 33.8 °F 26.6 °F 65% 30.18 in 6.2 mi ENE 4.6 mph - N/A   Mostly Cloudy
3:30 PM 39.2 °F 37.0 °F 26.6 °F 61% 30.18 in 6.2 mi Variable 3.5 mph - N/A   Mostly Cloudy
4:00 PM 39.2 °F 35.9 °F 26.6 °F 61% 30.18 in 6.2 mi North 4.6 mph - N/A   Mostly Cloudy
4:30 PM 39.2 °F - 26.6 °F 61% 30.18 in 6.2 mi Variable 2.3 mph - N/A   Unknown
5:00 PM 39.2 °F 37.0 °F 26.6 °F 61% 30.15 in 6.2 mi Variable 3.5 mph - N/A   Unknown
5:30 PM 37.4 °F - 26.6 °F 65% 30.15 in 6.2 mi Variable 1.2 mph - N/A   Unknown
6:00 PM 37.4 °F 32.8 °F 26.6 °F 65% 30.15 in 6.2 mi West 5.8 mph - N/A   Unknown
6:30 PM 35.6 °F 31.7 °F 26.6 °F 70% 30.18 in 6.2 mi West 4.6 mph - N/A   Unknown
7:00 PM 33.8 °F 30.8 °F 26.6 °F 75% 30.18 in 6.2 mi WSW 3.5 mph - N/A   Unknown
7:30 PM 33.8 °F 29.6 °F 26.6 °F 75% 30.18 in 6.2 mi West 4.6 mph - N/A   Unknown
8:00 PM 30.2 °F 25.4 °F 24.8 °F 80% 30.18 in 5.6 mi West 4.6 mph - N/A   Unknown
8:30 PM 30.2 °F 26.7 °F 24.8 °F 80% 30.18 in 6.2 mi West 3.5 mph - N/A   Unknown
9:00 PM 30.2 °F - 24.8 °F 80% 30.18 in 5.6 mi Variable 2.3 mph - N/A   Unknown
9:30 PM 28.4 °F 24.6 °F 24.8 °F 86% 30.18 in 5.0 mi Variable 3.5 mph - N/A   Unknown
10:00 PM 26.6 °F - 23.0 °F 86% 30.18 in 4.3 mi Variable 2.3 mph - N/A   Unknown
10:30 PM 24.8 °F - 21.2 °F 86% 30.18 in 3.7 mi Variable 2.3 mph - N/A   Unknown
11:00 PM 24.8 °F 20.5 °F 23.0 °F 93% 30.18 in 3.7 mi SSW 3.5 mph - N/A   Unknown
11:30 PM 24.8 °F 20.5 °F 23.0 °F 93% 30.18 in 3.7 mi SW 3.5 mph - N/A   Unknown